Des Moines, Washington, United States
Lat: 47.40N, Lon: 122.32W
Wx Zone: WAZ508
Local Info
Past Weather Observations for Today

NOTE: This archive is for the closest National Weather Service station to Des Moines. Information may differ from the station used for current weather conditions.

Click here for Long-term Archive

Time Weather Temperature Dewpoint Humidity Pressure Winds Precip Visibility
20:53
Mostly Cloudy
61°F / 16°C 52°F / 11°C 72% 30.27 in
(1025 mb)
SW 10.4 mph
(SW 17 kph)
- 10SM
20:06
Mostly Cloudy
61°F / 16°C 54°F / 12°C 77% 30.27 in
(1025 mb)
SW 10.4 mph
(SW 17 kph)
- 10SM
19:53
Mostly Cloudy
61°F / 16°C 54°F / 12°C 77% 30.27 in
(1025 mb)
SW 8.1 mph
(SW 13 kph)
- 10SM
18:53
Mostly Cloudy
63°F / 17°C 55°F / 13°C 77% 30.27 in
(1025 mb)
Variable 6.9 mph
(Variable 11 kph)
0.00 in
(0.00 mm)
10SM
17:53
Mostly Cloudy
Light Rain
61°F / 16°C 57°F / 14°C 88% 30.24 in
(1024 mb)
WNW 3.5 mph
(WNW 6 kph)
0.01 in
(0.25 mm)
10SM
16:53
Mostly Cloudy
64°F / 18°C 54°F / 12°C 68% 30.24 in
(1024 mb)
SW 9.2 mph
(SW 15 kph)
- 10SM
15:53
Mostly Cloudy
66°F / 19°C 54°F / 12°C 64% 30.24 in
(1024 mb)
SW 9.2 mph
(SW 15 kph)
- 10SM
14:53
Mostly Cloudy
66°F / 19°C 54°F / 12°C 64% 30.24 in
(1024 mb)
SW 9.2 mph
(SW 15 kph)
- 10SM
13:53
Mostly Cloudy
66°F / 19°C 55°F / 13°C 68% 30.24 in
(1024 mb)
SW 15 mph
(SW 24 kph)
- 10SM
12:53
Mostly Cloudy
64°F / 18°C 55°F / 13°C 73% 30.24 in
(1024 mb)
SW 15 mph
(SW 24 kph)
- 10SM
11:53
Mostly Cloudy
63°F / 17°C 54°F / 12°C 73% 30.24 in
(1024 mb)
SW 15 mph
(SW 24 kph)
- 10SM
11:09
Mostly Cloudy
63°F / 17°C 54°F / 12°C 73% 30.21 in
(1023 mb)
SSE 13.8 mph
(SSE 22 kph)
- 10SM
10:53
Mostly Cloudy
61°F / 16°C 54°F / 12°C 77% 30.21 in
(1023 mb)
SW 12.7 mph
(SW 20 kph)
- 10SM
09:53
Overcast
57°F / 14°C 54°F / 12°C 88% 30.21 in
(1023 mb)
SSE 9.2 mph
(SSE 15 kph)
- 10SM
08:53
Overcast
55°F / 13°C 54°F / 12°C 94% 30.18 in
(1022 mb)
S 10.4 mph
(S 17 kph)
- 10SM
08:33
Overcast
55°F / 13°C 54°F / 12°C 94% 30.18 in
(1022 mb)
SSE 12.7 mph
(SSE 20 kph)
- 10SM
08:20
Overcast
55°F / 13°C 54°F / 12°C 94% 30.18 in
(1022 mb)
SW 12.7 mph
(SW 20 kph)
- 10SM
07:53
Overcast
55°F / 13°C 54°F / 12°C 94% 30.18 in
(1022 mb)
S 12.7 mph
(S 20 kph)
- 10SM
07:14
Overcast
54°F / 12°C 54°F / 12°C 100% 30.18 in
(1022 mb)
S 12.7 mph
(S 20 kph)
- 10SM
06:53
Overcast
54°F / 12°C 54°F / 12°C 100% 30.18 in
(1022 mb)
S 11.5 mph
(S 19 kph)
- 10SM
06:51
Overcast
54°F / 12°C 54°F / 12°C 100% 30.18 in
(1022 mb)
S 11.5 mph
(S 19 kph)
- 10SM
06:28
Overcast
54°F / 12°C 54°F / 12°C 100% 30.18 in
(1022 mb)
S 9.2 mph
(S 15 kph)
- 10SM
06:00
Overcast
54°F / 12°C 54°F / 12°C 100% 30.15 in
(1021 mb)
S 9.2 mph
(S 15 kph)
- 10SM
05:53
Overcast
54°F / 12°C 52°F / 11°C 94% 30.15 in
(1021 mb)
S 8.1 mph
(S 13 kph)
0.01 in
(0.25 mm)
10SM
04:53
Overcast
54°F / 12°C 52°F / 11°C 94% 30.15 in
(1021 mb)
S 8.1 mph
(S 13 kph)
- 10SM
03:53
Overcast
54°F / 12°C 52°F / 11°C 94% 30.15 in
(1021 mb)
SW 11.5 mph
(SW 19 kph)
- 10SM
03:24
Overcast
54°F / 12°C 52°F / 11°C 94% 30.15 in
(1021 mb)
SW 9.2 mph
(SW 15 kph)
- 10SM
02:53
Overcast
52°F / 11°C 52°F / 11°C 100% 30.12 in
(1020 mb)
SSE 4.6 mph
(SSE 7 kph)
0.03 in
(0.76 mm)
10SM
01:53
Overcast
Light Rain
54°F / 12°C 52°F / 11°C 94% 30.12 in
(1020 mb)
SSE 3.5 mph
(SSE 6 kph)
0.06 in
(1.52 mm)
10SM
Time Weather Temperature Dewpoint Humidity Pressure Winds Precip Visibility


Weather for websites

WeatherForYou.com, LLC is not responsible for any damages or problems caused by this service. Current weather conditions are obtained from the closest station including government and personal stations which may have varying degrees of accuracy. Weather forecasts are derived from the NOAA NDFD. Like all things, this site belongs to Jesus Christ... He just trusts us to maintain it. If you have any questions or comments email webmaster@weatherforyou.com

Copyright © 2016, WeatherForYou.com LLC. All rights reserved.